TimeCST,TemperatureF,Dew PointF,Humidity,Sea Level PressureIn,VisibilityMPH,Wind Direction,Wind SpeedMPH,Gust SpeedMPH,PrecipitationIn,Events,Conditions,WindDirDegrees,DateUTC
12:45 AM,71.6,62.6,73,30.05,7.0,Calm,Calm,-,N/A,,Scattered Clouds,0,2012-11-13 06:45:00
1:44 AM,64.4,62.6,94,30.03,7.0,North,5.8,-,N/A,,Partly Cloudy,350,2012-11-13 07:44:00
2:43 AM,64.4,62.6,94,30.00,7.0,Calm,Calm,-,N/A,,Clear,0,2012-11-13 08:43:00
3:46 AM,64.4,60.8,88,30.02,7.0,Calm,Calm,-,N/A,,Clear,0,2012-11-13 09:46:00
4:45 AM,64.4,60.8,88,30.03,7.0,NNW,5.8,-,N/A,,Clear,340,2012-11-13 10:45:00
5:44 AM,64.4,60.8,88,30.02,7.0,NW,5.8,-,N/A,,Partly Cloudy,320,2012-11-13 11:44:00
6:43 AM,66.2,62.6,88,30.06,7.0,NW,5.8,-,N/A,,Scattered Clouds,320,2012-11-13 12:43:00
7:59 AM,75.2,68.0,78,30.09,7.0,NNW,3.5,-,N/A,,Scattered Clouds,340,2012-11-13 13:59:00
8:50 AM,82.4,68.0,62,30.08,7.0,Calm,Calm,-,N/A,,Scattered Clouds,0,2012-11-13 14:50:00
9:51 AM,78.8,69.8,74,30.09,7.0,NNE,2.3,-,N/A,,Scattered Clouds,20,2012-11-13 15:51:00
10:46 AM,84.2,69.8,62,30.08,7.0,East,3.5,-,N/A,,Mostly Cloudy,100,2012-11-13 16:46:00
11:48 AM,82.4,68.0,62,30.06,7.0,ENE,8.1,-,N/A,,Scattered Clouds,70,2012-11-13 17:48:00
12:48 PM,82.4,66.2,58,30.03,7.0,ENE,13.8,-,N/A,,Scattered Clouds,60,2012-11-13 18:48:00
1:40 PM,82.4,64.4,54,30.01,7.0,NE,9.2,-,N/A,,Mostly Cloudy,40,2012-11-13 19:40:00
2:44 PM,80.6,66.2,61,30.01,7.0,NE,8.1,-,N/A,,Mostly Cloudy,50,2012-11-13 20:44:00
3:43 PM,80.6,66.2,61,30.01,7.0,NNE,8.1,-,N/A,,Mostly Cloudy,30,2012-11-13 21:43:00
4:42 PM,78.8,68.0,69,30.01,7.0,NNE,6.9,-,N/A,,Scattered Clouds,30,2012-11-13 22:42:00
5:47 PM,77.0,68.0,74,30.00,7.0,NNE,3.5,-,N/A,,Partly Cloudy,20,2012-11-13 23:47:00
6:45 PM,75.2,66.2,73,30.02,7.0,NNE,2.3,-,N/A,,Partly Cloudy,20,2012-11-14 00:45:00
7:49 PM,73.4,66.2,78,30.04,7.0,North,2.3,-,N/A,,Partly Cloudy,350,2012-11-14 01:49:00
8:42 PM,73.4,66.2,78,30.05,7.0,North,2.3,-,N/A,,Partly Cloudy,10,2012-11-14 02:42:00
9:48 PM,69.8,66.2,88,30.06,7.0,NW,3.5,-,N/A,,Scattered Clouds,310,2012-11-14 03:48:00
10:47 PM,73.4,66.2,78,30.05,7.0,NW,4.6,-,N/A,,Scattered Clouds,310,2012-11-14 04:47:00
11:45 PM,71.6,66.2,83,30.03,7.0,North,3.5,-,N/A,,Partly Cloudy,350,2012-11-14 05:45:00